User: anonymous   Login
Location: Camp Creek
(33.9000°N, 111.8167°W)
Time: 02:38:55
(UTC-07:00)
Language:

Cosmos 2322 Rocket - Orbit

View from above orbital plane
View from above orbital plane
View from above satellite
View from above satellite

Ground track
Ground track

The orbit data is extracted from the following two-line orbital elements,

1 23705U 95058B   14351.50754979 -.00000188  00000-0 -72255-4 0  4184
2 23705 071.0222 143.7920 0014752 253.9540 105.9958 14.15042174988074
Epoch (UTC): 17 December 2014 12:10:52
Eccentricity: 0.0014752
inclination: 71.0222°
perigee height: 831 km
apogee height: 853 km
right ascension of ascending node: 143.7920°
argument of perigee: 253.9540°
revolutions per day: 14.15042174
mean anomaly at epoch: 105.9958°
orbit number at epoch: 98807

The dashed part of the orbit path shows where the satellite is in the earth's shadow,  

DLR